When you browse on this site, cookies collect data to enhance your experience and personalize the content and advertising you see.
Visit our Privacy Policy to learn more. By continuing to use the site, you agree to this use of cookies and data.
  • In Hungary
  • List of Countries
  • For 7 days
  • Water Temperature
  • Weather Map
  • News
  • Weather Widgets
  • user-avatar
    Login

    Hourly Weather Campbelltown

    Today, 19 November, Tuesday

    Time Temperature Precipitation Wind Pressure Humidity
    00:00 +16°C° 0 mm 1 mps 747 mmHg 53%
    01:00 +15°C° 0 mm 1 mps 746 mmHg 51%
    02:00 +15°C° 0 mm 1 mps 746 mmHg 49%
    03:00 +15°C° 0 mm 2 mps 746 mmHg 47%
    04:00 +15°C° 0 mm 1 mps 746 mmHg 45%
    05:00 +19°C° 0 mm 1 mps 746 mmHg 40%
    06:00 +22°C° 0 mm 1 mps 747 mmHg 34%
    07:00 +24°C° 0 mm 1 mps 747 mmHg 28%
    08:00 +28°C° 0 mm 1 mps 747 mmHg 24%
    09:00 +31°C° 0 mm 2 mps 747 mmHg 19%
    10:00 +36°C° 0 mm 2 mps 746 mmHg 13%
    11:00 +37°C° 0 mm 2 mps 746 mmHg 12%
    12:00 +38°C° 0 mm 3 mps 745 mmHg 11%
    13:00 +38°C° 0 mm 4 mps 745 mmHg 10%
    14:00 +38°C° 0 mm 4 mps 744 mmHg 10%
    15:00 +38°C° 0 mm 4 mps 744 mmHg 11%
    16:00 +37°C° 0 mm 4 mps 744 mmHg 11%
    17:00 +32°C° 0 mm 5 mps 744 mmHg 31%
    18:00 +26°C° 0 mm 5 mps 745 mmHg 50%
    19:00 +20°C° 0 mm 6 mps 746 mmHg 70%
    20:00 +19°C° 0 mm 5 mps 747 mmHg 75%
    21:00 +18°C° 0 mm 4 mps 748 mmHg 80%
    22:00 +17°C° 0 mm 4 mps 748 mmHg 85%
    23:00 +16°C° 0 mm 3 mps 748 mmHg 86%

    Tomorrow, 20 November, Wednesday

    Time Temperature Precipitation Wind Pressure Humidity
    00:00 +14°C° 0 mm 3 mps 749 mmHg 88%
    01:00 +15°C° 0 mm 2 mps 749 mmHg 89%
    02:00 +15°C° 0 mm 2 mps 749 mmHg 87%
    03:00 +15°C° 0 mm 2 mps 749 mmHg 85%
    04:00 +15°C° 0 mm 2 mps 749 mmHg 83%
    05:00 +16°C° 0 mm 2 mps 749 mmHg 79%
    06:00 +17°C° 0 mm 2 mps 750 mmHg 75%
    07:00 +19°C° 0 mm 1 mps 750 mmHg 71%
    08:00 +20°C° 0 mm 1 mps 750 mmHg 66%
    09:00 +21°C° 0 mm 1 mps 750 mmHg 61%
    10:00 +23°C° 0 mm 1 mps 750 mmHg 56%
    11:00 +24°C° 0 mm 2 mps 750 mmHg 51%
    12:00 +26°C° 0 mm 2 mps 749 mmHg 46%
    13:00 +27°C° 0 mm 3 mps 749 mmHg 41%
    14:00 +27°C° 0 mm 3 mps 749 mmHg 44%
    15:00 +26°C° 0 mm 3 mps 748 mmHg 46%
    16:00 +26°C° 0 mm 4 mps 748 mmHg 49%
    17:00 +22°C° 0 mm 3 mps 748 mmHg 60%
    18:00 +20°C° 0 mm 2 mps 749 mmHg 72%
    19:00 +19°C° 0 mm 1 mps 750 mmHg 83%
    20:00 +18°C° 0 mm 1 mps 750 mmHg 87%
    21:00 +18°C° 0 mm 1 mps 750 mmHg 90%
    22:00 +16°C° 0 mm 1 mps 751 mmHg 94%
    23:00 +18°C° 0 mm 1 mps 750 mmHg 92%

    Day after tomorrow, 21 November, Thursday

    Time Temperature Precipitation Wind Pressure Humidity
    00:00 +18°C° 0 mm 1 mps 750 mmHg 90%
    01:00 +18°C° 0 mm 1 mps 750 mmHg 88%
    02:00 +18°C° 0 mm 1 mps 749 mmHg 90%
    03:00 +16°C° 0 mm 1 mps 749 mmHg 92%
    04:00 +15°C° 0 mm 1 mps 748 mmHg 95%
    05:00 +18°C° 0 mm 1 mps 749 mmHg 85%
    06:00 +20°C° 0 mm 1 mps 749 mmHg 76%
    07:00 +22°C° 0 mm 1 mps 749 mmHg 66%
    08:00 +25°C° 0 mm 2 mps 749 mmHg 56%
    09:00 +28°C° 0 mm 2 mps 748 mmHg 45%
    10:00 +31°C° 0 mm 3 mps 748 mmHg 35%
    11:00 +34°C° 0 mm 3 mps 747 mmHg 31%
    12:00 +35°C° 0 mm 4 mps 746 mmHg 27%
    13:00 +37°C° 0 mm 4 mps 746 mmHg 23%
    14:00 +36°C° 0 mm 5 mps 745 mmHg 30%
    15:00 +34°C° 0 mm 5 mps 744 mmHg 36%
    16:00 +33°C° 0 mm 5 mps 744 mmHg 43%
    17:00 +29°C° 0 mm 4 mps 744 mmHg 53%
    18:00 +26°C° 0 mm 3 mps 744 mmHg 63%
    19:00 +24°C° 0 mm 1 mps 745 mmHg 73%
    20:00 +23°C° 0 mm 1 mps 745 mmHg 76%
    21:00 +22°C° 0 mm 1 mps 744 mmHg 79%
    22:00 +22°C° 0 mm 1 mps 744 mmHg 81%
    23:00 +22°C° 0 mm 1 mps 744 mmHg 80%

    22 November, Friday

    Time Temperature Precipitation Wind Pressure Humidity
    00:00 +21°C° 0 mm 1 mps 744 mmHg 79%
    01:00 +21°C° 0 mm 1 mps 744 mmHg 78%
    02:00 +21°C° 0 mm 1 mps 744 mmHg 74%
    03:00 +20°C° 0 mm 2 mps 745 mmHg 70%
    04:00 +21°C° 0 mm 2 mps 745 mmHg 66%
    05:00 +23°C° 0 mm 2 mps 745 mmHg 64%
    06:00 +24°C° 0 mm 2 mps 746 mmHg 61%
    07:00 +25°C° 0 mm 3 mps 747 mmHg 58%
    08:00 +27°C° 0.1 mm 3 mps 747 mmHg 54%
    09:00 +28°C° 0.1 mm 3 mps 747 mmHg 49%
    10:00 +30°C° 0.1 mm 4 mps 748 mmHg 44%
    11:00 +30°C° 0 mm 4 mps 748 mmHg 45%
    12:00 +30°C° 0 mm 4 mps 747 mmHg 45%
    13:00 +29°C° 0 mm 4 mps 747 mmHg 45%
    14:00 +27°C° 0.7 mm 4 mps 747 mmHg 57%
    15:00 +25°C° 0.7 mm 3 mps 747 mmHg 69%
    16:00 +21°C° 0.7 mm 2 mps 747 mmHg 81%
    17:00 +20°C° 1.4 mm 2 mps 747 mmHg 85%
    18:00 +20°C° 1.4 mm 1 mps 747 mmHg 89%
    19:00 +19°C° 1.4 mm 1 mps 748 mmHg 93%
    20:00 +19°C° 1.3 mm 1 mps 748 mmHg 94%
    21:00 +19°C° 1.3 mm 1 mps 748 mmHg 95%
    22:00 +19°C° 1.3 mm 1 mps 748 mmHg 96%
    23:00 +19°C° 0.8 mm 1 mps 748 mmHg 96%

    23 November, Saturday

    Time Temperature Precipitation Wind Pressure Humidity
    00:00 +19°C° 0.8 mm 1 mps 748 mmHg 96%
    01:00 +18°C° 0.8 mm 2 mps 748 mmHg 96%
    02:00 +19°C° 0 mm 1 mps 747 mmHg 96%
    03:00 +19°C° 0 mm 1 mps 747 mmHg 96%
    04:00 +17°C° 0 mm 0 mps 746 mmHg 96%
    05:00 +18°C° 0 mm 0 mps 747 mmHg 93%
    06:00 +19°C° 0 mm 0 mps 747 mmHg 90%
    07:00 +20°C° 0 mm 0 mps 747 mmHg 87%
    08:00 +24°C° 0 mm 1 mps 747 mmHg 75%
    09:00 +27°C° 0 mm 1 mps 747 mmHg 63%
    10:00 +30°C° 0 mm 2 mps 747 mmHg 51%
    11:00 +31°C° 0 mm 2 mps 747 mmHg 48%
    12:00 +33°C° 0 mm 3 mps 746 mmHg 44%
    13:00 +35°C° 0 mm 3 mps 746 mmHg 41%
    14:00 +31°C° 0.5 mm 3 mps 745 mmHg 52%
    15:00 +28°C° 0.5 mm 3 mps 745 mmHg 63%
    16:00 +26°C° 0.5 mm 3 mps 745 mmHg 74%
    17:00 +25°C° 0.6 mm 2 mps 745 mmHg 80%
    18:00 +23°C° 0.6 mm 2 mps 746 mmHg 87%
    19:00 +22°C° 0.6 mm 1 mps 747 mmHg 94%
    20:00 +21°C° 0 mm 2 mps 748 mmHg 94%
    21:00 +20°C° 0 mm 2 mps 748 mmHg 95%
    22:00 +20°C° 0 mm 3 mps 749 mmHg 95%
    23:00 +20°C° 0 mm 3 mps 749 mmHg 94%

    24 November, Sunday

    Time Temperature Precipitation Wind Pressure Humidity
    00:00 +19°C° 0 mm 3 mps 749 mmHg 93%
    01:00 +19°C° 0 mm 4 mps 749 mmHg 92%
    02:00 +18°C° 0 mm 4 mps 749 mmHg 91%
    03:00 +18°C° 0 mm 4 mps 749 mmHg 90%
    04:00 +18°C° 0 mm 4 mps 749 mmHg 88%
    05:00 +18°C° 0 mm 4 mps 750 mmHg 85%
    06:00 +17°C° 0 mm 4 mps 751 mmHg 82%
    07:00 +17°C° 0 mm 3 mps 751 mmHg 78%
    08:00 +19°C° 0 mm 3 mps 751 mmHg 71%
    09:00 +20°C° 0 mm 3 mps 751 mmHg 64%
    10:00 +22°C° 0 mm 3 mps 751 mmHg 57%
    11:00 +24°C° 0 mm 3 mps 751 mmHg 54%
    12:00 +24°C° 0 mm 3 mps 750 mmHg 52%
    13:00 +25°C° 0 mm 4 mps 750 mmHg 50%
    14:00 +25°C° 0 mm 4 mps 749 mmHg 53%
    15:00 +23°C° 0 mm 4 mps 749 mmHg 56%
    16:00 +22°C° 0 mm 4 mps 748 mmHg 60%
    17:00 +21°C° 0 mm 3 mps 749 mmHg 68%
    18:00 +19°C° 0 mm 2 mps 749 mmHg 76%
    19:00 +18°C° 0 mm 1 mps 750 mmHg 84%
    20:00 +18°C° 0 mm 1 mps 750 mmHg 85%
    21:00 +18°C° 0 mm 1 mps 751 mmHg 87%
    22:00 +18°C° 0 mm 1 mps 751 mmHg 89%
    23:00 +18°C° 0 mm 1 mps 751 mmHg 88%
    Show more